Wind_Speed
7 8 8 7 6 6 6 6 6 6 6 5 5 5 5 5 5 5 5 5 5 5 5 5 6 5 5 5 6 6 7 7 8 8 8 8 8 8 9 8 8 8 9
7 8 8 7 7 6 6 6 6 6 6 6 6 6 6 6 5 5 5 5 5 5 5 6 6 6 6 7 7 7 8 7 7 7 8 8 8 8 8 8 8 8 8
8 8 8 8 7 7 7 7 7 7 7 7 7 7 7 6 6 6 6 5 6 6 6 6 6 6 6 7 7 7 8 7 7 7 7 8 8 8 8 8 7 7 7
9 9 8 8 8 7 7 7 7 7 7 7 7 7 7 7 7 7 6 6 6 6 6 6 6 6 6 7 7 7 7 7 7 8 8 8 8 7 7 7 7 7 7
10 9 9 9 8 8 8 8 8 8 8 7 7 7 7 7 7 8 7 7 7 7 7 7 7 7 7 7 7 7 7 7 7 7 8 8 8 8 7 7 7 7 8
10 9 9 9 9 9 9 8 8 8 8 8 7 8 8 8 8 8 8 8 8 8 8 8 8 8 8 8 8 8 8 8 8 8 8 8 8 8 8 8 8 8 8
10 10 10 10 10 10 9 9 9 8 8 8 8 8 9 9 9 8 8 8 8 9 9 9 9 9 9 9 10 10 9 9 9 9 9 9 9 9 9 8 8 9 9
11 11 11 11 10 10 10 10 9 9 9 9 9 9 10 10 10 9 9 9 9 9 9 10 10 10 11 11 11 11 10 10 10 10 10 10 10 10 10 9 9 10 10
13 12 12 11 10 11 11 10 10 10 10 10 10 10 10 11 11 10 10 11 11 11 10 11 11 11 11 12 12 13 12 12 12 12 11 11 11 12 12 11 11 12 12
13 13 12 11 11 11 11 11 11 11 10 11 11 11 12 12 12 12 12 12 12 11 11 11 11 11 12 13 13 13 13 13 13 13 13 13 12 12 13 13 13 13 13
14 13 13 12 12 12 12 12 12 12 11 11 12 12 12 13 13 13 12 12 12 12 12 12 13 13 13 13 13 13 14 14 14 14 14 14 15 15 15 15 15 14 14
15 15 14 14 14 13 13 13 13 12 12 12 12 13 13 13 13 13 12 12 12 12 12 12 13 13 13 12 12 12 13 14 14 14 15 15 15 15 16 16 16 16 16
16 16 16 15 15 15 14 14 14 14 13 13 13 14 14 14 14 13 13 13 13 13 13 13 14 14 14 14 14 14 14 14 15 15 16 16 17 17 17 17 17 18 18
17 17 17 17 16 16 15 15 15 15 15 15 15 15 14 15 15 14 14 14 15 15 15 15 16 15 16 16 16 16 16 16 17 17 17 18 18 19 19 19 19 19 19
18 18 18 17 17 17 17 16 16 16 16 16 16 16 15 16 15 15 16 16 16 17 17 17 17 17 17 18 18 18 18 18 18 19 19 19 20 20 20 20 20 20 20
19 19 19 19 18 18 17 17 16 16 16 17 17 16 16 16 17 17 17 17 17 18 18 18 18 19 18 18 19 19 19 19 19 19 20 20 21 21 21 21 21 22 22
19 20 20 20 20 19 18 17 17 16 16 16 17 17 17 18 18 18 18 18 19 19 19 19 19 19 19 20 20 21 21 20 20 20 21 21 22 22 22 22 22 22 23
20 20 20 20 20 19 19 18 18 18 17 17 17 18 18 19 19 19 19 19 20 20 21 21 20 20 21 21 22 22 22 22 22 23 22 22 23 23 23 23 23 24 24
21 21 22 21 21 20 20 20 19 19 19 19 18 19 19 19 20 20 21 21 21 21 22 22 21 21 22 22 22 23 23 23 23 23 24 24 24 24 24 24 25 25 25
22 22 22 22 21 20 20 20 20 19 20 20 20 20 21 21 21 21 22 22 21 22 23 22 22 23 23 23 23 24 24 24 24 24 24 24 25 25 25 26 26 26 26
22 22 23 22 21 20 20 20 20 20 20 20 21 21 21 22 22 22 22 22 22 23 23 23 23 24 24 24 24 24 25 25 25 25 25 26 26 26 27 28 27 27 27
22 22 22 22 21 21 21 21 21 21 21 21 22 22 22 22 22 22 23 22 23 23 23 23 24 24 25 25 25 25 25 25 25 26 26 27 27 27 28 28 28 28 28
23 23 22 22 21 21 21 21 22 22 22 23 23 23 23 23 23 23 23 23 23 24 24 24 24 25 25 26 26 26 26 26 26 27 27 27 27 28 28 28 28 28 28
24 24 24 23 23 23 23 23 24 24 24 25 25 25 25 25 25 25 25 25 25 25 26 26 26 26 26 27 27 27 27 27 27 27 27 28 28 28 28 29 28 28 28
24 24 25 25 25 25 25 25 25 26 26 26 26 27 26 26 26 26 26 27 27 27 28 28 28 28 28 28 28 28 28 28 28 29 28 29 29 29 28 28 28 29 29
25 25 26 26 25 26 26 26 26 26 26 27 27 28 28 28 27 27 28 28 28 28 29 30 30 30 30 30 30 30 30 30 30 30 29 29 30 30 30 29 29 30 30
Wind_Direction
349 347 344 339 334 335 336 341 340 334 331 328 321 319 316 313 308 306 308 306 306 304 303 301 301 300 297 297 289 286 293 295 296 295 295 294 296 297 298 299 299 296 295
339 340 338 336 333 331 331 331 332 333 325 324 320 315 312 311 307 304 302 299 299 298 296 297 302 302 299 297 296 295 297 298 298 301 301 301 300 298 300 299 299 296 296
327 327 328 328 326 323 321 321 324 328 324 316 313 309 309 311 309 307 304 298 301 299 292 295 297 298 301 303 299 300 301 302 304 305 307 306 304 300 300 299 300 299 296
322 320 320 319 318 318 314 312 315 317 319 318 312 307 309 312 309 305 299 294 297 296 292 292 291 293 297 300 299 301 301 304 307 311 307 307 305 305 305 299 298 301 300
315 315 315 315 313 311 308 309 310 308 308 310 313 309 308 308 306 302 299 294 293 296 294 289 288 288 292 296 299 300 298 301 304 306 304 303 304 307 303 303 302 300 297
309 310 310 311 309 307 305 306 306 302 303 307 309 309 310 309 306 304 301 295 294 294 294 292 289 285 287 288 291 293 294 297 297 299 302 300 299 302 301 300 299 297 299
301 303 306 306 305 303 301 306 303 301 302 305 306 306 310 312 309 306 303 299 297 294 293 291 288 284 284 286 289 290 289 291 294 296 297 295 292 293 294 295 296 295 297
299 298 300 303 305 303 301 303 301 299 300 302 301 302 303 307 305 300 296 297 296 295 292 290 288 286 285 284 286 286 282 287 289 290 293 293 291 290 291 290 292 294 297
298 295 296 299 301 301 300 300 301 300 297 298 298 296 299 300 300 297 295 295 295 292 289 289 289 287 287 286 285 284 280 280 284 287 290 291 288 290 290 291 289 290 291
295 293 292 293 295 297 297 295 294 296 295 294 295 296 298 298 297 296 293 292 293 292 290 287 288 290 289 287 287 285 281 279 280 282 287 288 285 286 292 292 289 286 287
293 291 290 289 291 291 289 288 288 289 291 292 295 297 298 299 298 297 294 291 291 291 290 286 285 288 289 289 289 285 280 280 280 280 283 285 286 289 293 292 287 284 284
289 288 287 286 286 286 285 285 285 285 287 290 294 296 297 298 297 295 294 292 291 292 291 288 287 289 289 288 290 290 286 284 283 281 282 286 287 289 291 291 288 286 284
285 285 284 284 284 284 284 284 282 283 283 287 292 296 296 296 296 293 293 292 293 292 292 291 290 290 288 287 287 289 288 286 284 283 282 284 284 286 287 286 286 287 285
284 283 282 284 283 282 281 280 280 280 281 285 290 293 295 296 296 293 291 291 292 293 294 293 292 290 288 286 285 285 285 284 282 283 283 283 284 283 285 285 285 286 285
284 282 283 284 284 282 279 277 277 278 281 282 286 288 291 294 294 292 292 292 293 293 294 292 291 288 288 287 285 285 285 284 282 281 282 283 284 283 283 284 285 285 285
285 282 284 284 284 283 280 275 274 276 278 280 282 285 287 290 291 290 291 292 293 293 293 292 291 290 289 287 286 285 285 284 283 282 282 283 284 283 282 283 284 286 285
285 284 283 283 283 282 280 275 275 276 278 280 282 284 284 286 287 287 288 290 291 293 292 292 292 292 289 288 287 287 285 285 284 283 282 282 283 283 282 284 285 286 286
284 283 284 283 282 281 280 276 276 277 278 280 283 284 283 284 284 283 285 288 290 291 292 292 292 291 291 288 286 286 285 285 285 284 283 282 282 282 281 284 285 287 288
283 283 284 284 282 279 277 275 276 278 279 280 282 284 284 285 284 285 286 288 290 291 291 291 292 291 290 288 286 285 284 284 285 285 283 282 282 282 282 282 284 285 285
284 284 285 284 281 278 275 274 275 277 279 282 285 286 288 287 287 287 287 289 289 290 292 291 292 291 289 289 286 283 283 283 283 283 284 284 283 283 283 283 283 284 284
284 286 287 284 281 277 274 274 275 275 278 281 284 286 288 288 287 287 288 288 289 289 290 290 290 290 289 288 287 285 284 283 283 283 284 285 285 284 284 283 283 284 283
285 285 285 283 280 277 275 274 274 276 278 280 283 285 287 288 286 286 288 289 289 289 289 290 290 289 290 289 288 288 286 283 283 284 284 285 285 286 286 285 285 284 282
285 284 282 279 276 275 275 275 276 277 279 281 282 284 286 286 284 285 287 288 289 290 290 289 291 290 290 291 290 290 287 283 283 284 285 285 285 287 288 288 287 285 283
283 282 278 277 277 277 276 276 276 277 279 282 283 284 285 286 285 284 285 287 288 288 289 289 290 290 289 290 289 289 288 286 285 284 284 284 285 287 289 289 287 286 284
281 282 281 278 276 276 277 277 276 277 279 281 282 283 284 284 284 283 284 285 287 288 289 289 289 289 289 288 288 288 287 286 286 285 283 283 284 286 287 288 289 289 286
279 279 280 280 277 276 276 277 277 277 278 279 281 283 282 282 283 284 284 284 286 287 287 288 288 289 288 288 287 287 287 286 286 285 284 284 284 285 286 286 287 287 285
Height
5863 5862 5861 5860 5860 5859 5858 5858 5857 5857 5856 5856 5855 5855 5855 5854 5854 5854 5853 5853 5853 5853 5853 5853 5853 5853 5853 5853 5853 5853 5853 5853 5853 5852 5852 5852 5851 5851 5851 5850 5849 5849 5848
5863 5862 5861 5860 5859 5859 5858 5857 5856 5856 5856 5855 5855 5854 5854 5854 5853 5853 5852 5852 5852 5852 5852 5852 5852 5852 5852 5852 5852 5851 5851 5851 5851 5851 5850 5850 5850 5849 5849 5848 5847 5847 5846
5862 5862 5861 5860 5859 5858 5857 5856 5856 5855 5855 5854 5854 5853 5853 5852 5852 5852 5852 5851 5851 5851 5851 5851 5851 5851 5851 5850 5850 5850 5850 5849 5849 5849 5849 5849 5848 5848 5847 5846 5846 5845 5845
5861 5860 5860 5859 5858 5857 5856 5856 5855 5854 5854 5853 5853 5852 5852 5851 5851 5851 5850 5850 5850 5850 5850 5849 5849 5849 5849 5849 5849 5848 5848 5848 5848 5847 5847 5847 5847 5847 5846 5845 5844 5844 5844
5860 5859 5858 5857 5856 5856 5855 5854 5854 5853 5852 5852 5852 5851 5850 5850 5849 5849 5849 5849 5848 5848 5848 5848 5847 5847 5847 5847 5847 5847 5846 5846 5846 5846 5845 5845 5845 5844 5844 5844 5843 5843 5842
5859 5858 5857 5856 5855 5854 5854 5853 5852 5852 5851 5851 5850 5850 5849 5848 5848 5847 5847 5847 5847 5847 5846 5846 5846 5845 5845 5845 5845 5845 5845 5845 5844 5844 5843 5843 5843 5842 5842 5842 5842 5841 5840
5857 5856 5855 5855 5854 5853 5852 5851 5851 5850 5850 5849 5849 5848 5847 5847 5846 5846 5845 5845 5845 5844 5844 5844 5844 5843 5843 5843 5843 5843 5843 5842 5842 5842 5841 5841 5841 5841 5841 5840 5840 5839 5839
5855 5854 5853 5853 5852 5851 5850 5850 5849 5848 5848 5847 5847 5846 5846 5845 5844 5844 5843 5843 5842 5842 5842 5841 5841 5841 5841 5840 5840 5840 5840 5840 5840 5840 5839 5839 5839 5839 5838 5838 5838 5837 5837
5852 5852 5851 5850 5850 5849 5848 5848 5847 5846 5846 5845 5844 5844 5843 5842 5842 5841 5841 5840 5839 5839 5839 5838 5838 5838 5837 5837 5837 5837 5837 5837 5837 5837 5836 5836 5836 5836 5836 5835 5835 5835 5834
5849 5849 5848 5848 5847 5847 5846 5845 5845 5844 5843 5843 5842 5841 5840 5840 5839 5838 5837 5837 5836 5836 5835 5835 5835 5834 5834 5834 5834 5834 5834 5834 5834 5833 5833 5833 5833 5833 5832 5832 5831 5831 5831
5847 5846 5845 5845 5845 5844 5843 5843 5842 5841 5841 5840 5839 5838 5837 5836 5835 5835 5834 5833 5833 5832 5832 5832 5831 5831 5831 5830 5830 5830 5830 5830 5830 5830 5830 5830 5829 5829 5828 5828 5828 5827 5827
5843 5843 5842 5842 5841 5841 5840 5839 5839 5838 5838 5837 5836 5835 5834 5833 5832 5831 5830 5830 5829 5829 5828 5828 5828 5828 5827 5827 5827 5826 5826 5826 5826 5826 5826 5826 5825 5825 5825 5824 5824 5823 5823
5840 5839 5838 5838 5838 5837 5836 5836 5835 5835 5834 5834 5833 5832 5830 5829 5828 5827 5826 5826 5826 5825 5825 5824 5824 5824 5823 5823 5823 5823 5822 5822 5822 5822 5821 5821 5821 5821 5820 5820 5819 5819 5818
5836 5835 5834 5834 5833 5833 5832 5832 5832 5831 5831 5830 5829 5828 5827 5826 5824 5824 5823 5822 5822 5821 5821 5820 5820 5819 5819 5818 5818 5818 5818 5817 5817 5817 5817 5816 5816 5815 5815 5815 5814 5813 5813
5832 5831 5830 5829 5829 5828 5828 5828 5827 5827 5826 5825 5825 5824 5823 5822 5820 5820 5819 5818 5817 5817 5816 5816 5815 5815 5814 5813 5813 5813 5812 5812 5812 5811 5811 5811 5810 5809 5809 5809 5808 5808 5807
5827 5826 5825 5825 5824 5823 5823 5822 5822 5822 5821 5821 5820 5819 5818 5817 5816 5815 5815 5814 5813 5812 5811 5811 5810 5809 5809 5808 5808 5807 5807 5806 5806 5806 5805 5805 5804 5804 5803 5803 5803 5802 5801
5822 5821 5820 5819 5818 5818 5817 5817 5817 5816 5816 5815 5815 5814 5814 5813 5812 5811 5810 5809 5808 5807 5806 5805 5804 5804 5803 5802 5802 5801 5800 5800 5800 5800 5799 5799 5798 5798 5797 5797 5796 5795 5794
5817 5816 5814 5813 5812 5812 5811 5811 5811 5811 5811 5810 5810 5809 5808 5808 5807 5806 5805 5804 5803 5802 5801 5800 5799 5798 5797 5796 5796 5795 5794 5794 5793 5793 5793 5792 5791 5791 5790 5790 5789 5788 5787
5811 5810 5809 5807 5806 5806 5806 5805 5805 5805 5805 5805 5805 5804 5803 5802 5801 5800 5799 5798 5797 5796 5795 5794 5793 5792 5791 5790 5789 5789 5788 5787 5787 5786 5786 5785 5784 5783 5783 5782 5782 5781 5779
5805 5804 5802 5800 5799 5799 5799 5799 5799 5800 5800 5800 5799 5799 5798 5797 5796 5795 5794 5793 5791 5790 5789 5788 5787 5786 5785 5784 5783 5782 5781 5780 5780 5779 5778 5777 5776 5775 5774 5774 5773 5772 5771
5799 5798 5796 5794 5793 5793 5793 5793 5793 5794 5794 5794 5794 5793 5792 5791 5790 5789 5788 5787 5786 5784 5783 5782 5781 5780 5778 5777 5776 5775 5774 5773 5772 5771 5770 5769 5768 5767 5766 5765 5764 5763 5762
5793 5792 5790 5789 5787 5787 5787 5788 5788 5788 5788 5788 5788 5787 5786 5785 5784 5783 5782 5781 5780 5778 5777 5775 5774 5773 5771 5770 5769 5767 5766 5765 5764 5763 5763 5762 5760 5759 5758 5756 5755 5754 5753
5787 5786 5784 5783 5783 5782 5781 5782 5782 5782 5782 5782 5781 5781 5780 5779 5778 5777 5776 5775 5773 5772 5770 5769 5768 5766 5765 5763 5761 5760 5758 5757 5756 5755 5754 5753 5752 5750 5749 5747 5746 5745 5744
5781 5780 5779 5778 5777 5776 5775 5775 5775 5775 5776 5775 5775 5774 5773 5772 5771 5770 5769 5768 5766 5765 5764 5762 5761 5759 5758 5756 5754 5752 5751 5749 5748 5747 5746 5744 5743 5742 5740 5739 5737 5736 5735
5774 5773 5772 5771 5770 5770 5769 5769 5769 5769 5769 5768 5768 5767 5766 5765 5764 5762 5761 5760 5759 5758 5756 5755 5753 5751 5750 5748 5746 5744 5742 5741 5739 5738 5737 5736 5735 5733 5732 5731 5729 5728 5727
5767 5766 5765 5764 5763 5762 5762 5762 5761 5761 5761 5761 5760 5759 5758 5757 5756 5755 5753 5752 5751 5749 5748 5746 5744 5742 5741 5739 5737 5735 5734 5732 5730 5729 5728 5727 5726 5725 5723 5722 5721 5719 5718